Location: Peterborough
(44.3091°N, 78.3197°W)
Time: 06:35:58
(UTC-04:00)

A-11 Canister half - Pass Details

Date: 23 March 2023
Orbit: 1513 x 1686 km, 47.2° (Epoch: 04 June)

Event Time Altitude Azimuth Distance (km) Brightness Sun altitude
Exits shadow 02:27:43 63° 62° (ENE) 1,848 9.3 -42.3°
Drops below altitude 10° 02:36:05 10° 88° (E) 3,944 11.4 -41.7°
Sets 02:39:16 0° 90° (E) 4,923 11.9 -41.4°
